GW5292 Weather Reports


time (UTC)temp
C
wind
direction
speed
KPH
gust
KPH
rain 1hr
cm
rain 24hr
cm
rain mn
cm
humidity
%
barometer
mb
20260505170017 26 213 11.3 17.7 0.00 0.00 0.00 39 1009.0
20260505164511 26 211 9.7 22.5 0.00 0.00 0.00 41 1009.1
20260505163021 26 199 8.0 22.5 0.00 0.00 0.00 43 1009.5
20260505161524 26 203 8.0 16.1 0.00 0.00 0.00 46 1009.4
20260505153021 25 250 8.0 11.3 0.00 0.00 0.00 47 1009.6
20260505151520 24 179 4.8 11.3 0.00 0.00 0.00 48 1009.8
20260505124505 18 179 4.8 9.7 0.00 0.00 0.00 63 1011.0
20260505123009 17 198 3.2 8.0 0.00 0.00 0.00 65 1010.9
20260505121517 16 201 3.2 4.8 0.00 0.00 0.00 72 1010.8
20260505120003 13 194 0.0 3.2 0.00 0.00 0.00 88 1010.6
20260505114504 12 342 0.0 0.0 0.00 0.00 0.00 92 1010.7
20260505113016 11 342 0.0 3.2 0.00 0.00 0.00 92 1010.7
20260505111514 11 348 0.0 1.6 0.00 0.00 0.00 92 1010.6
20260505101517 10 348 0.0 3.2 0.00 0.00 0.00 90 1010.0
20260505100021 10 348 0.0 0.0 0.00 0.00 0.00 89 1010.0
20260505094527 11 348 0.0 3.2 0.00 0.00 0.00 89 1009.8
20260505093006 11 348 0.0 0.0 0.00 0.00 0.00 88 1009.8
20260505091508 11 348 0.0 0.0 0.00 0.00 0.00 87 1009.8
20260505090016 11 348 0.0 0.0 0.00 0.00 0.00 86 1009.8
20260505084520 12 348 0.0 0.0 0.00 0.00 0.00 83 1009.9
20260505083028 13 321 0.0 0.0 0.00 0.00 0.00 81 1009.7
20260505081510 14 321 0.0 0.0 0.00 0.00 0.00 77 1009.7
20260505080013 14 321 0.0 0.0 0.00 0.00 0.00 73 1009.6
20260505074520 13 321 0.0 3.2 0.00 0.00 0.00 73 1009.3
20260505073027 13 322 0.0 3.2 0.00 0.00 0.00 74 1009.3
20260505071525 13 322 0.0 3.2 0.00 0.00 0.00 74 1009.4
20260505070010 12 321 0.0 3.2 0.00 0.00 0.00 74 1009.8
20260505064513 13 330 0.0 3.2 0.00 0.00 0.00 72 1009.7
20260505063025 13 330 0.0 3.2 0.00 0.00 0.00 72 1009.7
20260505061523 13 257 0.0 3.2 0.00 0.00 0.00 70 1009.7
20260505060020 13 257 0.0 3.2 0.00 0.00 0.00 67 1009.8
20260505054506 14 226 0.0 1.6 0.00 0.00 0.00 65 1009.6
20260505053002 15 226 0.0 3.2 0.00 0.00 0.00 63 1009.7
20260505051503 15 17 0.0 3.2 0.00 0.00 0.00 61 1009.5
20260505041503 15 265 0.0 3.2 0.00 0.00 0.00 59 1009.5
20260505040006 16 339 0.0 6.4 0.00 0.00 0.00 56 1009.4
20260505034507 16 333 0.0 3.2 0.00 0.00 0.00 56 1009.2
20260505033017 16 346 0.0 3.2 0.00 0.00 0.00 53 1009.2
20260505031510 17 166 0.0 4.8 0.00 0.00 0.00 51 1009.2
20260505030004 17 336 0.0 3.2 0.00 0.00 0.00 47 1009.2
20260505024505 18 144 0.0 4.8 0.00 0.00 0.00 46 1009.2
20260505023011 18 210 4.8 11.3 0.00 0.00 0.00 44 1009.2
20260505021515 19 212 6.4 12.9 0.00 0.00 0.00 43 1009.4
20260505020014 19 155 8.0 16.1 0.00 0.00 0.00 43 1009.4
20260505014508 19 196 8.0 16.1 0.00 0.00 0.00 42 1009.4
20260505013009 19 196 9.7 24.1 0.00 0.00 0.00 42 1009.4
20260505011519 18 205 6.4 14.5 0.00 0.00 0.00 44 1009.2
20260505010015 18 194 6.4 14.5 0.00 0.00 0.00 45 1009.2
20260505004535 18 202 4.8 8.0 0.00 0.00 0.00 45 1009.1
20260505003005 19 192 3.2 8.0 0.00 0.00 0.00 44 1008.9
20260505001512 19 197 4.8 11.3 0.00 0.00 0.00 43 1008.9
20260505000018 20 205 4.8 12.9 0.00 0.00 0.00 42 1008.7
20260504234527 20 184 3.2 9.7 0.00 0.00 0.00 40 1008.7
20260504233018 20 173 8.0 12.9 0.00 0.00 0.00 40 1008.5
20260504231519 20 171 8.0 14.5 0.00 0.00 0.00 40 1008.5
20260504230012 21 193 9.7 22.5 0.00 0.00 0.00 39 1008.3
20260504224517 21 205 8.0 14.5 0.00 0.00 0.00 39 1008.2
20260504223019 22 205 8.0 16.1 0.00 0.00 0.00 35 1008.0
20260504221518 22 199 8.0 14.5 0.00 0.00 0.00 37 1008.2
20260504220008 22 209 6.4 17.7 0.00 0.00 0.00 37 1008.3
20260504214518 22 184 6.4 11.3 0.00 0.00 0.00 36 1008.3
20260504213023 22 190 8.0 11.3 0.00 0.00 0.00 38 1008.3
20260504211521 22 190 9.7 19.3 0.00 0.00 0.00 36 1008.3
20260504210022 22 190 4.8 11.3 0.00 0.00 0.00 37 1008.7
20260504204519 22 205 6.4 19.3 0.00 0.00 0.00 37 1008.7
20260504203002 22 186 9.7 17.7 0.00 0.00 0.00 37 1008.8
20260504201503 21 352 4.8 22.5 0.00 0.00 0.00 37 1009.0
20260504200010 22 186 9.7 19.3 0.00 0.00 0.00 36 1009.2
20260504194511 22 203 6.4 17.7 0.00 0.00 0.00 38 1009.3
20260504193022 21 200 8.0 16.1 0.00 0.00 0.00 39 1009.5
20260504191502 21 167 4.8 14.5 0.00 0.00 0.00 38 1009.6
20260504190007 21 189 4.8 11.3 0.00 0.00 0.00 39 1009.6
20260504184508 21 198 6.4 24.1 0.00 0.00 0.00 38 1009.9
20260504183009 21 235 6.4 14.5 0.00 0.00 0.00 38 1010.2
20260504181503 21 192 6.4 14.5 0.00 0.00 0.00 41 1010.5
20260504180004 21 219 4.8 14.5 0.00 0.00 0.00 39 1010.6
20260504174503 21 192 9.7 14.5 0.00 0.00 0.00 37 1010.8
20260504173009 20 230 4.8 16.1 0.00 0.00 0.00 43 1010.9
20260504171533 20 217 8.0 16.1 0.00 0.00 0.00 41 1011.2